This demonstration page uses our WeatherBlox Daily Observations layout. Learn more.

Hourly Observations for December 18, 2018

Temp ( °F °C ) Dew Point ( °F °C ) Humidity (%) Winds ( mph kmh ) Pressure ( in mb ) Visibility ( mi km ) Precip ( " mm )
12:15 am 00:15 Clear 37 2.6 30 -1 77 77 S 14 22 30.09 1019 10 16.0934 0 0
12:35 am 00:35 Clear 36 2 30 -1 81 81 S 15 24 30.06 1018 10 16.0934 0 0
12:55 am 00:55 Clear 35 1.7 30 -1.1 82 82 S 12 19 30.06 1018 10 16.0934 0 0
1:15 am 01:15 Clear 35 1.7 30 -1 82 82 S 15 24 30.06 1018 10 16.0934 0 0
1:35 am 01:35 Clear 36 2 30 -1.2 80 80 S 13 20 30.06 1018 10 16.0934 0 0
1:55 am 01:55 Clear 35 1.5 30 -1.3 82 82 S 10 17 30.03 1017 10 16.0934 0 0
2:15 am 02:15 Clear 34 1.3 30 -1.3 83 83 S 8 13 30.06 1018 10 16.0934 0 0
2:35 am 02:35 Clear 35 1.5 29 -1.5 81 81 S 9 15 30.06 1018 10 16.0934 0 0
2:55 am 02:55 Clear 34 1.2 29 -1.5 82 82 S 6 9 30.06 1018 10 16.0934 0 0
3:15 am 03:15 Clear 34 1 29 -1.5 84 84 S 6 9 30.03 1017 10 16.0934 0 0
3:35 am 03:35 Clear 35 1.5 30 -1.3 82 82 S 5 7 30.03 1017 10 16.0934 0 0
3:55 am 03:55 Clear 35 1.5 29 -1.4 81 81 S 7 11 30 1016 10 16.0934 0 0
4:15 am 04:15 Clear 36 2 30 -1.3 79 79 S 9 15 30.03 1017 10 16.0934 0 0
4:35 am 04:35 Clear 35 1.9 30 -1.3 80 80 Calm 30.03 1017 10 16.0934 0 0
4:55 am 04:55 Clear 36 2.2 29 -1.5 77 77 S 7 11 30 1016 10 16.0934 0 0
5:15 am 05:15 Clear 35 1.7 30 -1.3 81 81 SSW 9 15 30.03 1017 10 16.0934 0 0
5:35 am 05:35 Clear 35 1.7 29 -1.4 80 80 Calm 30 1016 10 16.0934 0 0
5:55 am 05:55 Clear 35 1.5 30 -1.3 82 82 S 3 6 30 1016 10 16.0934 0 0
6:15 am 06:15 Clear 35 1.5 30 -1.3 82 82 SSW 3 6 30 1016 10 16.0934 0 0
6:35 am 06:35 Clear 34 1.3 30 -1.2 84 84 SSW 8 13 30 1016 10 16.0934 0 0
6:55 am 06:55 Clear 34 1.2 30 -1.2 84 84 SSW 6 9 30 1016 10 16.0934 0 0
7:15 am 07:15 Clear 34 1.3 30 -1.2 84 84 S 9 15 30 1016 10 16.0934 0 0
7:35 am 07:35 Clear 34 1.3 30 -1.3 83 83 SSW 9 15 30 1016 10 16.0934 0 0
7:55 am 07:55 Partly Cloudy 34 1.2 30 -1.3 84 84 SSW 7 11 30 1016 10 16.0934 0 0
8:15 am 08:15 Partly Cloudy 34 1 30 -1.3 85 85 WSW 3 6 30 1016 10 16.0934 0 0
8:35 am 08:35 Partly Cloudy 34 1.3 30 -1.3 83 83 SW 6 9 30 1016 10 16.0934 0 0
8:55 am 08:55 Partly Cloudy 34 1.1 29 -1.4 84 84 SW 5 7 30 1016 10 16.0934 0 0
9:15 am 09:15 Partly Cloudy 34 1 30 -1.3 85 85 SSW 5 7 30 1016 10 16.0934 0 0
9:35 am 09:35 Sunny 35 1.5 31 -0.8 85 85 S 3 6 30 1016 10 16.0934 0 0
9:55 am 09:55 Partly Cloudy 35 1.6 30 -0.9 84 84 SW 3 6 30 1016 10 16.0934 0 0
10:15 am 10:15 Partly Cloudy 36 2.1 31 -0.6 83 83 Calm 29.97 1015 10 16.0934 0 0
10:35 am 10:35 Cloudy 37 2.7 31 -0.6 79 79 Calm 29.97 1015 10 16.0934 0 0
10:55 am 10:55 Cloudy 37 2.8 31 -0.4 80 80 SW 3 6 29.97 1015 10 16.0934 0 0
11:15 am 11:15 Cloudy 38 3.6 31 -0.3 76 76 Calm 29.97 1015 10 16.0934 0 0
11:35 am 11:35 Cloudy 39 4 32 -0.2 74 74 Calm 29.97 1015 10 16.0934 0 0
11:55 am 11:55 Cloudy 40 4.5 32 0 73 73 Calm 29.94 1014 10 16.0934 0 0
12:15 pm 12:15 Cloudy 40 4.5 32 0 73 73 W 3 6 29.94 1014 10 16.0934 0 0
12:35 pm 12:35 Mostly Cloudy 41 5.1 33 0.3 71 71 W 3 6 29.91 1013 10 16.0934 0 0
12:55 pm 12:55 Partly Cloudy 42 5.3 32 0.2 70 70 Calm 29.91 1013 10 16.0934 0 0
1:15 pm 13:15 Mostly Cloudy 43 5.9 33 0.5 69 69 WSW 3 6 29.88 1012 10 16.0934 0 0
1:35 pm 13:35 Cloudy 43 6 34 0.9 70 70 SSW 3 6 29.88 1012 10 16.0934 0 0
1:55 pm 13:55 Mostly Cloudy 43 6.2 35 1.5 72 72 Calm 29.85 1011 10 16.0934 0 0
2:15 pm 14:15 Partly Cloudy 43 6 35 1.4 73 73 Calm 29.85 1011 10 16.0934 0 0
2:35 pm 14:35 Sunny 45 7.2 34 1.3 66 66 Calm 29.85 1011 10 16.0934 0 0
2:55 pm 14:55 Sunny 46 7.5 35 1.5 66 66 WNW 5 7 29.83 1010 10 16.0934 0 0
3:15 pm 15:15 Sunny 45 7.1 36 2 70 70 Calm 29.85 1011 10 16.0934 0 0
3:35 pm 15:35 Sunny 44 6.8 37 2.5 74 74 SSE 3 6 29.85 1011 10 16.0934 0 0
3:55 pm 15:55 Sunny 44 6.4 36 2.3 75 75 S 6 9 29.85 1011 10 16.0934 0 0
4:15 pm 16:15 Partly Cloudy 42 5.7 36 2 77 77 S 6 9 29.85 1011 10 16.0934 0 0
4:35 pm 16:35 Sunny 42 5.5 35 1.7 77 77 SSW 3 6 29.85 1011 10 16.0934 0 0
4:55 pm 16:55 Partly Cloudy 42 5.3 36 2 80 80 SW 3 6 29.85 1011 10 16.0934 0 0
5:15 pm 17:15 Clear 41 4.8 35 1.5 79 79 SSW 3 6 29.85 1011 10 16.0934 0 0
5:35 pm 17:35 Clear 40 4.2 35 1.4 82 82 SSW 5 7 29.85 1011 10 16.0934 0 0
5:55 pm 17:55 Clear 39 3.7 34 1.1 83 83 SW 6 9 29.88 1012 10 16.0934 0 0
6:15 pm 18:15 Clear 38 3.6 33 0.7 82 82 SSW 5 7 29.88 1012 10 16.0934 0 0
6:35 pm 18:35 Clear 37 2.8 33 0.4 84 84 SSW 3 6 29.88 1012 10 16.0934 0 0
6:55 pm 18:55 Clear 36 2.2 32 0.1 86 86 SSW 5 7 29.88 1012 10 16.0934 0 0
7:15 pm 19:15 Clear 36 2.3 32 0 85 85 SW 5 7 29.88 1012 10 16.0934 0 0
7:35 pm 19:35 Clear 36 2 32 -0.1 86 86 SW 5 7 29.88 1012 10 16.0934 0 0
7:55 pm 19:55 Clear 36 2.3 32 -0.1 84 84 SSW 6 9 29.85 1011 10 16.0934 0 0
8:15 pm 20:15 Clear 35 1.7 32 -0.2 87 87 SSW 6 9 29.85 1011 10 16.0934 0 0
8:35 pm 20:35 Clear 36 2 32 -0.1 86 86 SSW 7 11 29.85 1011 10 16.0934 0 0
8:55 pm 20:55 Clear 34 1.1 31 -0.5 89 89 SW 5 7 29.85 1011 10 16.0934 0 0
9:15 pm 21:15 Clear 34 1.3 31 -0.3 89 89 SSW 5 7 29.85 1011 10 16.0934 0 0
9:35 pm 21:35 Clear 35 1.6 32 -0.1 89 89 SSW 6 9 29.85 1011 10 16.0934 0 0
9:55 pm 21:55 Clear 35 1.5 32 -0.1 89 89 SW 6 9 29.85 1011 10 16.0934 0 0
10:15 pm 22:15 Clear 35 1.6 32 0 89 89 SW 3 6 29.85 1011 10 16.0934 0 0
10:35 pm 22:35 Clear 35 1.6 32 -0.1 89 89 WSW 5 7 29.85 1011 10 16.0934 0 0
10:55 pm 22:55 Clear 34 1.3 32 -0.1 91 91 WSW 3 6 29.85 1011 10 16.0934 0 0
11:15 pm 23:15 Clear 34 1.2 32 -0.2 91 91 WSW 5 7 29.85 1011 10 16.0934 0 0
11:35 pm 23:35 Clear 36 2.1 32 0 86 86 WSW 6 9 29.85 1011 10 16.0934 0 0
11:55 pm 23:55 Clear 36 2.1 32 0 86 86 WSW 7 11 29.85 1011 10 16.0934 0 0

Powered by AerisWeather